CST,Max TemperatureF,Mean TemperatureF,Min TemperatureF,Max Dew PointF,MeanDew PointF,Min DewpointF,Max Humidity, Mean Humidity, Min Humidity, Max Sea Level PressureIn, Mean Sea Level PressureIn, Min Sea Level PressureIn, Max VisibilityMiles, Mean VisibilityMiles, Min VisibilityMiles, Max Wind SpeedMPH, Mean Wind SpeedMPH, Max Gust SpeedMPH,PrecipitationIn, CloudCover, Events, WindDirDegrees
2013-2-1,0,-9,-18,-6,-13,-23,79,68,56,30.39,30.22,30.04,10,6,1,16,5,20,0.07,5,Snow,148
2013-2-2,7,2,-3,2,-2,-8,87,75,63,30.26,30.11,29.96,10,7,0,9,4,12,0.04,6,Snow,192
2013-2-3,13,7,0,3,0,-5,87,73,58,30.15,30.09,29.95,10,9,3,20,6,24,T,6,Snow,309
2013-2-4,14,5,-4,9,0,-9,79,69,58,30.14,29.95,29.68,10,8,2,14,5,,0.03,6,Snow,165
2013-2-5,28,16,3,21,12,0,88,69,50,30.13,29.83,29.60,10,9,2,20,7,25,0.01,5,Snow,284
2013-2-6,22,15,7,17,10,4,84,80,76,30.13,30.03,29.91,10,6,0,13,6,18,0.08,7,Fog-Snow,105
2013-2-7,28,21,13,21,18,10,92,78,63,30.34,30.19,30.01,10,8,4,15,8,20,0.00,8,,21
2013-2-8,24,12,0,18,8,-4,91,80,68,30.43,30.35,30.23,10,10,2,16,6,21,0.00,2,,136
2013-2-9,30,27,23,28,24,19,92,87,81,30.21,30.05,29.92,10,6,2,20,12,29,T,8,Snow,154
2013-2-10,29,28,26,27,24,23,92,88,84,29.94,29.54,29.32,10,2,0,18,11,29,0.70,8,Fog-Rain-Snow,64
2013-2-11,29,19,8,24,16,6,91,80,68,30.09,29.81,29.47,10,9,4,28,16,33,T,6,Snow,307
2013-2-12,31,19,7,19,14,7,88,73,58,30.08,29.94,29.84,10,10,8,15,7,18,0.00,3,,211
2013-2-13,35,25,15,30,26,13,100,85,69,29.83,29.66,29.57,10,4,0,10,5,14,0.29,6,Fog-Snow,166
2013-2-14,32,20,7,30,14,-3,100,70,40,30.25,29.94,29.62,10,9,2,17,10,23,T,2,Snow,336
2013-2-15,17,8,-1,2,-1,-4,87,70,53,30.39,30.33,30.23,10,10,10,15,9,17,0.00,1,,308
2013-2-16,14,6,-2,5,0,-7,95,81,66,30.33,30.24,30.16,10,9,4,9,3,12,T,5,Snow,182
2013-2-17,30,15,-1,21,12,0,88,76,63,30.16,29.91,29.64,10,10,8,24,11,29,0.00,2,,138
2013-2-18,30,18,6,25,12,-1,92,80,67,29.91,29.67,29.49,10,7,2,26,13,32,T,7,Snow,300
2013-2-19,6,2,-2,-3,-8,-11,76,66,55,30.47,30.19,29.89,10,10,8,25,15,33,T,2,,320
2013-2-20,13,0,-13,-2,-8,-16,86,69,52,30.56,30.51,30.38,10,10,10,9,3,13,T,0,,350
2013-2-21,21,7,-8,14,3,-12,87,69,51,30.54,30.39,30.18,10,10,10,14,7,18,0.00,0,,62
2013-2-22,28,24,20,20,18,15,88,78,68,30.15,29.96,29.86,10,4,1,14,6,20,0.12,8,Snow,27
2013-2-23,33,22,11,21,18,9,92,74,56,30.00,29.90,29.82,10,8,2,12,4,14,T,5,Snow,308
2013-2-24,33,17,0,19,6,-3,92,78,63,30.17,30.05,29.92,10,4,0,8,1,9,0.00,4,Fog,203
2013-2-25,35,20,5,20,13,1,92,74,56,30.17,30.11,30.02,10,4,0,7,1,9,0.00,3,Fog,346
2013-2-26,34,22,10,24,15,9,92,77,61,30.14,30.04,29.93,10,4,0,13,5,17,0.00,5,Fog,5
2013-2-27,40,29,18,23,19,15,84,66,48,30.11,30.01,29.96,10,10,10,18,8,25,0.00,1,,358
2013-2-28,30,23,16,21,17,11,75,69,63,30.31,30.22,30.06,10,10,10,13,7,18,0.00,6,,10